Location: Piolenc
(44.1794°N, 4.7641°E)
Time: 04:22:29
(UTC+00:00)

Cosmos 2142 Rocket - Pass Details

Date: 27 January 2021
Orbit: 952 x 1005 km, 83.0° (Epoch: 27 February)

Event Time Altitude Azimuth Distance (km) Brightness Sun altitude
Rises 05:41:38 0° 188° (S) 3,698 7.6 -14.8°
Reaches altitude 10° 05:44:09 10° 190° (S) 2,747 6.9 -14.4°
Maximum altitude 05:50:28 82° 278° (W) 997 4.5 -13.3°
Drops below altitude 10° 05:56:45 10° 6° (N) 2,728 6.8 -12.2°
Sets 05:59:15 0° 8° (N) 3,672 7.5 -11.7°
